Temperature
18 18 18 18 17 17 17 17 17 16 16 16 16 16 16 15 15 15 15 15 15 15 15 15 15 15 15 15 15 15 15 15 15 15 15 15 15 15 15 15 15 14 14
18 18 18 17 17 17 17 17 17 16 16 16 16 16 15 15 15 15 15 15 15 15 15 15 15 15 15 14 14 14 14 14 14 14 15 14 14 14 15 15 15 14 14
18 18 17 17 17 17 17 17 16 16 16 16 16 15 15 15 15 15 15 15 15 15 15 15 14 14 14 14 14 14 14 14 14 14 14 14 14 14 14 14 14 14 14
19 18 18 17 17 17 17 16 16 16 16 16 16 15 15 15 15 15 15 15 14 14 14 14 14 14 14 14 14 14 14 14 14 14 14 14 14 14 14 14 14 14 14
19 18 17 17 17 16 16 16 16 16 16 16 16 15 15 15 15 15 14 14 14 14 14 14 14 14 14 14 14 14 14 14 14 14 14 14 14 14 14 14 14 14 14
19 18 17 17 17 16 16 16 16 16 16 16 15 15 15 15 15 14 14 14 14 14 14 14 14 14 14 14 14 14 14 14 14 14 14 14 14 14 14 14 14 13 13
19 18 17 17 16 16 16 16 16 15 15 15 15 15 15 15 15 14 14 14 14 14 14 14 14 14 14 14 14 14 13 13 13 13 13 13 13 13 13 13 13 13 13
18 18 18 17 16 16 16 16 15 15 15 15 15 15 15 15 15 14 14 14 14 14 14 14 14 14 14 14 14 13 13 13 13 13 13 13 13 13 13 13 13 13 13
18 18 17 17 16 16 16 15 15 15 15 15 15 15 15 14 14 14 14 14 14 14 14 14 14 14 13 13 13 13 13 13 13 13 13 13 13 13 13 13 13 13 12
18 18 17 17 16 16 15 15 15 15 15 15 14 14 14 14 14 14 14 14 14 14 14 14 13 13 13 13 13 13 13 13 13 13 13 13 13 13 13 13 13 13 12
18 18 17 17 16 16 15 15 15 15 15 14 14 14 14 14 14 14 14 13 13 13 13 13 13 13 13 13 13 13 13 13 13 12 12 12 12 12 12 12 12 12 12
18 18 17 16 16 15 15 15 15 14 14 14 14 14 14 13 13 13 13 13 13 13 13 13 13 13 12 12 12 12 12 12 12 12 12 12 12 12 12 12 12 12 12
18 17 17 16 16 15 15 15 14 14 14 14 14 14 13 13 13 13 13 13 13 13 13 12 12 12 12 12 12 12 12 12 12 12 12 12 12 12 12 12 12 12 12
18 17 16 16 15 15 15 14 14 14 14 13 13 13 13 13 13 13 13 12 12 12 12 12 12 12 12 12 12 12 12 12 11 11 11 11 11 11 11 11 11 11 11
17 17 16 16 15 15 14 14 14 14 13 13 13 13 12 12 12 12 12 12 12 12 12 12 11 11 11 11 11 11 11 11 11 11 11 11 11 11 11 11 11 11 11
16 16 16 15 15 14 14 14 14 13 13 13 13 12 12 12 12 12 12 12 12 11 11 11 11 11 11 11 11 11 11 11 11 11 11 11 11 11 11 11 10 10 10
16 15 15 15 14 14 14 13 13 13 13 12 12 12 12 12 12 11 11 11 11 11 11 11 11 11 11 11 11 11 11 10 10 10 10 10 10 10 10 10 10 10 10
15 15 14 14 14 13 13 13 13 13 12 12 12 12 11 11 11 11 11 11 11 11 10 10 10 10 10 10 10 10 10 10 10 10 10 10 10 10 10 10 10 10 10
14 14 14 13 13 13 13 13 12 12 12 12 11 11 11 11 11 10 10 10 10 10 10 10 10 10 10 10 10 10 10 9 9 9 9 9 10 10 10 10 9 9 9
13 13 13 13 13 13 12 12 12 12 11 11 11 11 10 10 10 10 10 10 10 10 9 9 9 9 9 9 9 9 9 9 9 9 9 9 9 9 9 9 9 9 9
13 12 12 12 12 12 12 11 11 11 11 11 10 10 10 10 10 10 9 9 9 9 9 9 9 9 9 9 9 9 9 8 8 8 8 8 9 8 8 8 8 8 8
12 12 12 11 11 11 11 11 11 10 10 10 10 10 9 9 9 9 9 9 9 9 9 9 8 8 8 8 8 8 8 8 8 8 8 8 8 8 8 8 8 8 8
11 11 11 11 10 10 10 10 10 10 10 10 9 9 9 9 8 8 8 8 8 8 8 8 8 8 8 8 8 8 8 7 7 7 7 7 7 7 7 7 7 7 7
11 11 10 10 10 10 10 10 9 9 9 9 9 9 8 8 8 8 8 8 8 8 8 8 7 7 7 7 7 7 7 7 7 7 7 7 7 7 7 7 7 7 7
10 10 10 10 9 9 9 9 9 9 9 8 8 8 8 7 7 7 7 7 7 7 7 7 7 7 7 7 7 7 7 7 6 6 6 6 6 6 6 6 6 6 6
10 9 9 9 9 9 8 8 8 8 8 8 8 7 7 7 7 7 6 7 7 7 7 7 7 7 7 7 7 6 6 6 6 6 5 5 5 5 5 6 6 5 5
Wind_Speed
4 5 5 4 4 3 3 3 3 3 2 2 2 2 1 1 2 1 2 3 3 4 3 2 2 3 2 2 2 2 2 1 1 2 1 1 2 2 2 1 2 2 4
5 5 5 4 3 3 3 3 3 3 3 2 2 1 2 1 2 2 2 1 2 3 2 2 2 2 2 2 2 2 1 1 1 1 1 0 1 2 1 2 1 2 2
7 5 5 4 3 3 2 2 3 3 3 2 2 2 2 1 2 2 1 1 2 2 1 2 2 1 2 1 1 1 1 0 2 1 1 1 0 1 1 1 2 2 1
6 6 5 4 4 3 2 2 2 3 3 3 3 2 1 1 1 2 1 1 2 2 1 1 1 1 1 1 1 1 1 1 1 2 1 0 1 1 0 1 1 1 2
6 6 6 4 3 3 2 1 2 3 3 2 3 2 2 2 1 2 2 2 2 2 2 1 1 1 1 2 1 1 1 1 0 1 1 1 1 1 1 1 1 1 0
6 6 6 5 4 4 3 2 2 2 2 2 2 3 3 2 2 2 2 1 1 1 1 1 1 1 1 2 1 1 1 1 1 1 0 0 0 1 0 1 0 0 1
6 5 6 5 4 4 4 3 2 2 2 2 2 2 3 3 3 2 2 2 2 1 2 2 1 1 1 1 1 1 1 1 1 1 1 1 1 0 0 1 0 0 1
5 5 6 6 5 5 4 3 2 2 2 1 1 1 2 2 2 2 2 2 2 2 2 2 2 1 1 1 1 1 1 1 1 1 1 1 1 1 0 1 1 0 1
5 5 5 6 5 4 5 4 3 2 1 1 0 1 2 2 1 2 1 1 1 1 2 1 2 1 1 1 1 0 0 1 1 1 2 1 1 1 1 1 2 2 1
5 4 4 4 5 4 4 4 3 3 2 2 1 1 1 1 1 1 1 1 0 0 1 2 2 2 2 2 2 1 1 1 1 2 2 2 1 1 1 1 1 2 2
5 5 4 4 4 4 3 3 2 2 2 2 2 2 1 1 1 1 0 1 1 0 1 1 1 2 2 1 1 2 2 2 2 1 1 1 1 1 1 1 1 1 2
4 4 5 4 4 3 3 3 2 1 1 2 1 1 1 1 1 1 1 0 1 1 0 0 0 0 0 0 1 2 2 2 2 2 1 1 1 1 1 1 1 1 1
4 4 4 4 4 3 3 3 3 2 1 1 1 1 1 1 1 1 1 1 1 0 0 1 0 0 0 0 1 2 2 1 2 1 2 2 1 1 1 1 1 1 1
4 4 3 3 3 3 3 2 2 2 1 1 1 1 2 1 1 1 1 1 1 1 0 0 0 0 0 1 1 1 1 1 1 1 2 2 2 2 2 1 1 1 1
3 3 3 2 2 2 2 2 1 1 1 1 1 1 1 1 1 1 1 1 1 1 1 1 0 1 0 1 1 1 2 2 2 2 2 1 1 1 1 1 1 1 2
3 2 2 2 2 1 2 2 2 1 1 1 1 1 1 1 1 2 1 1 1 1 1 1 1 1 1 3 3 2 2 2 1 1 2 2 2 2 2 3 3 2 2
3 3 3 3 2 1 1 1 1 2 2 1 1 1 1 1 0 1 1 1 1 1 0 0 1 2 1 3 3 3 2 2 2 2 1 2 2 2 2 3 4 3 4
3 2 2 2 2 2 1 1 1 2 1 1 1 1 1 1 1 1 1 1 1 0 0 1 0 2 2 2 3 3 2 2 2 2 2 2 2 1 0 1 2 3 4
3 2 2 2 1 1 2 1 1 1 2 2 1 1 1 1 1 1 1 1 1 1 1 0 1 2 1 1 2 3 2 2 2 2 1 1 1 1 1 0 2 3 4
3 2 2 2 2 2 2 2 1 1 1 1 1 1 1 1 1 1 1 0 0 0 0 1 1 1 1 0 1 1 1 2 2 2 1 1 1 1 1 1 2 3 4
2 2 1 1 1 1 2 2 2 2 2 2 2 1 0 1 1 1 1 1 1 0 0 0 1 1 1 0 1 1 1 1 2 2 2 2 1 1 2 2 2 4 4
2 1 1 1 1 1 1 2 2 2 3 2 2 1 0 1 0 1 1 1 1 1 1 0 0 1 0 0 1 2 2 2 1 2 2 2 2 2 3 3 4 5 3
1 1 0 1 1 1 1 1 1 2 2 1 1 1 1 1 1 1 1 1 1 1 1 1 1 1 1 1 2 3 4 4 2 2 3 3 3 3 3 4 4 3 2
1 1 0 1 0 0 1 1 1 1 1 1 1 1 1 1 1 1 0 1 1 1 1 1 1 1 1 1 1 1 1 2 2 2 3 4 5 4 4 3 3 2 2
1 1 1 1 0 1 1 1 1 1 2 2 2 1 1 1 1 1 1 1 2 2 2 2 2 2 2 1 0 0 1 1 1 1 1 2 2 2 2 2 1 1 1
1 1 1 1 2 2 2 2 1 1 2 2 2 1 1 1 1 1 2 2 2 1 2 2 2 1 2 2 1 1 2 2 2 1 1 2 2 2 2 2 1 1 2
Wind_Direction
143 127 123 125 126 121 108 104 115 101 96 97 104 103 88 93 87 70 58 35 29 61 92 85 77 83 83 70 65 72 55 38 47 58 51 39 86 105 98 74 71 82 91
144 137 133 136 145 142 129 134 115 111 100 84 99 121 120 117 108 89 69 65 51 49 73 89 83 85 88 75 62 79 60 1 29 84 82 38 12 359 120 116 102 87 87
151 152 150 150 146 130 117 112 122 119 124 127 95 77 79 87 100 110 100 64 84 83 81 101 107 109 112 126 134 95 92 354 331 17 81 102 219 314 2 138 118 113 83
155 156 153 151 153 141 128 145 136 127 126 124 118 125 127 139 142 137 142 137 104 105 100 122 135 141 127 127 162 137 130 130 308 332 4 20 118 133 291 322 83 125 110
164 154 152 156 162 146 144 158 121 111 117 132 136 155 142 138 127 129 145 152 132 133 128 146 153 161 160 159 164 137 123 128 217 303 329 339 331 264 145 231 295 338 111
157 150 148 156 157 140 139 135 130 121 126 125 143 157 151 149 148 160 164 159 144 158 159 162 161 180 164 159 165 148 135 153 248 286 293 137 340 296 96 167 212 321 294
151 150 154 154 150 149 151 156 150 142 127 144 158 151 166 166 167 177 176 161 170 188 197 169 162 171 168 165 157 139 151 229 239 249 264 274 265 278 150 129 193 323 294
152 159 162 154 156 154 152 158 157 153 146 160 177 164 144 149 141 171 180 178 188 194 201 187 173 158 144 158 143 172 215 223 240 265 269 262 279 277 202 139 131 99 335
156 164 161 151 152 155 158 163 161 157 152 178 184 165 137 125 153 179 175 152 186 187 186 196 167 157 140 145 118 132 234 239 236 247 254 241 254 263 230 152 140 140 187
151 156 149 151 156 154 158 158 166 173 169 173 180 177 160 161 173 162 139 156 211 160 216 220 186 186 191 181 172 175 192 215 242 228 234 239 233 232 202 218 194 150 166
147 157 148 147 150 148 148 149 161 167 179 194 189 186 189 187 164 131 203 208 218 226 237 235 203 211 205 204 191 198 194 212 240 244 227 242 237 198 204 204 185 185 146
139 146 142 144 145 150 157 161 171 191 201 198 185 185 174 152 155 167 168 203 219 210 226 153 117 203 226 261 240 237 221 212 224 234 239 253 210 157 196 187 201 214 193
117 113 124 139 146 153 162 174 176 185 200 190 162 152 176 198 220 218 179 205 243 221 180 111 143 143 97 290 272 243 242 234 236 239 236 230 187 200 206 181 205 225 211
107 103 109 122 126 137 141 159 175 169 165 160 165 169 187 206 247 252 221 216 228 216 178 168 187 167 131 360 352 326 281 256 237 249 245 211 198 199 188 187 206 211 198
98 100 106 112 113 122 133 137 133 128 131 126 139 167 183 194 272 278 269 247 245 234 193 165 80 49 66 336 27 347 321 307 268 236 225 212 143 121 176 187 197 210 206
81 74 78 96 120 121 119 127 142 136 118 101 74 67 64 72 329 311 311 322 275 255 239 195 162 72 17 23 38 23 315 300 302 279 237 216 186 200 195 196 189 187 205
76 66 64 61 50 89 113 117 127 116 121 116 83 67 60 69 344 321 330 319 283 240 234 41 95 104 57 42 31 358 326 301 290 292 299 287 265 205 207 224 220 220 232
71 67 64 57 38 29 34 121 92 97 99 89 78 69 71 68 27 22 17 345 4 54 120 119 93 114 82 52 30 353 313 310 305 309 309 292 293 308 348 262 239 237 235
64 57 62 53 30 37 40 64 128 122 101 83 68 63 66 68 73 73 41 343 6 3 357 35 76 100 83 51 24 3 305 301 299 304 320 310 277 326 22 324 272 273 270
57 55 57 41 38 42 45 44 52 84 83 77 66 71 80 102 131 154 170 280 211 250 305 33 30 102 112 104 72 38 319 305 303 298 290 303 325 3 9 248 252 263 268
50 32 32 38 35 33 37 35 31 31 40 44 45 64 112 172 169 163 182 200 165 127 16 50 345 26 76 179 196 188 235 287 307 309 306 305 299 285 303 295 256 260 272
49 35 44 46 38 40 50 23 27 27 29 38 31 8 329 284 242 166 209 206 186 193 213 222 290 305 166 164 251 230 239 282 270 283 296 295 298 290 288 282 282 288 297
62 37 129 117 55 22 33 36 38 44 30 15 341 325 334 321 346 220 219 213 209 201 212 217 228 260 238 211 254 244 247 267 263 273 298 301 299 293 274 271 278 279 269
21 8 313 180 179 8 12 58 69 48 358 323 306 296 322 337 329 314 266 225 240 233 227 230 238 244 252 236 217 234 253 275 287 296 301 302 294 287 281 281 277 263 255
33 22 349 302 321 52 42 57 57 8 336 324 324 323 328 309 304 316 290 254 233 216 228 245 228 223 235 251 173 225 259 276 297 315 301 300 300 299 288 289 278 266 283
47 28 357 1 15 31 24 29 44 7 332 325 327 320 317 313 311 315 330 326 281 261 243 231 232 244 220 226 239 262 293 301 298 295 261 271 273 267 272 278 284 282 277
Height
1512 1513 1514 1515 1516 1517 1517 1518 1518 1519 1520 1521 1521 1522 1523 1523 1524 1524 1525 1525 1526 1527 1527 1528 1528 1529 1530 1530 1531 1532 1532 1533 1533 1534 1534 1535 1535 1535 1535 1536 1536 1536 1536
1510 1512 1513 1514 1515 1516 1517 1518 1518 1519 1520 1520 1520 1522 1522 1523 1523 1524 1524 1525 1525 1526 1526 1527 1528 1528 1529 1529 1530 1531 1532 1533 1533 1534 1534 1535 1536 1535 1535 1535 1535 1535 1536
1508 1510 1512 1513 1514 1515 1516 1517 1518 1518 1518 1519 1520 1521 1521 1522 1522 1523 1524 1524 1524 1525 1526 1526 1527 1527 1528 1529 1530 1530 1531 1532 1533 1533 1534 1534 1534 1535 1535 1535 1535 1535 1535
1506 1508 1510 1512 1513 1514 1516 1516 1517 1517 1518 1519 1519 1520 1520 1521 1522 1522 1523 1523 1524 1524 1524 1525 1526 1527 1527 1528 1529 1529 1530 1531 1531 1532 1533 1534 1534 1534 1534 1535 1535 1535 1535
1505 1507 1509 1511 1512 1513 1514 1515 1516 1517 1517 1518 1518 1519 1519 1520 1521 1521 1522 1522 1523 1523 1524 1524 1524 1525 1526 1526 1527 1528 1529 1530 1531 1531 1532 1532 1532 1533 1533 1533 1534 1534 1534
1503 1505 1508 1509 1511 1512 1513 1514 1515 1516 1516 1516 1517 1517 1518 1519 1519 1520 1520 1521 1521 1522 1522 1523 1523 1524 1524 1525 1526 1527 1528 1529 1529 1530 1530 1531 1531 1531 1532 1532 1532 1532 1533
1501 1504 1506 1508 1509 1511 1512 1513 1514 1514 1515 1515 1515 1516 1517 1517 1518 1519 1520 1520 1520 1520 1521 1521 1522 1522 1523 1523 1524 1525 1526 1527 1528 1528 1529 1529 1529 1530 1531 1531 1531 1531 1532
1500 1502 1504 1506 1508 1509 1510 1511 1512 1513 1513 1514 1514 1514 1515 1516 1516 1517 1518 1519 1519 1519 1520 1520 1521 1521 1521 1522 1522 1523 1524 1525 1526 1526 1527 1527 1528 1528 1529 1529 1529 1529 1530
1499 1501 1503 1505 1506 1508 1509 1510 1511 1511 1512 1512 1513 1513 1513 1514 1515 1515 1516 1517 1517 1518 1519 1519 1519 1520 1520 1520 1521 1521 1522 1523 1523 1524 1524 1525 1525 1526 1527 1527 1528 1529 1529
1498 1500 1502 1503 1505 1506 1507 1508 1510 1510 1511 1511 1511 1512 1512 1512 1513 1514 1514 1515 1516 1516 1517 1517 1517 1518 1518 1519 1519 1519 1520 1521 1521 1521 1522 1522 1523 1524 1524 1525 1526 1526 1527
1497 1499 1501 1503 1504 1505 1506 1507 1508 1509 1509 1509 1510 1510 1510 1511 1512 1512 1513 1513 1514 1514 1515 1515 1515 1516 1516 1517 1517 1517 1518 1518 1518 1519 1519 1520 1520 1521 1522 1522 1523 1524 1524
1496 1498 1500 1502 1503 1504 1505 1506 1507 1507 1508 1508 1508 1508 1509 1509 1510 1510 1511 1511 1512 1512 1513 1513 1513 1513 1513 1514 1514 1515 1515 1515 1515 1516 1516 1517 1518 1518 1519 1519 1520 1521 1522
1496 1497 1499 1501 1502 1503 1503 1504 1505 1505 1506 1506 1506 1506 1507 1507 1508 1508 1508 1509 1510 1510 1510 1510 1511 1511 1511 1511 1511 1511 1512 1512 1512 1513 1514 1514 1515 1515 1516 1517 1517 1518 1519
1495 1497 1498 1499 1501 1501 1502 1503 1503 1503 1504 1504 1504 1504 1505 1505 1506 1506 1506 1507 1507 1507 1508 1508 1508 1508 1508 1508 1508 1508 1509 1509 1510 1510 1511 1511 1512 1512 1513 1513 1514 1515 1516
1495 1496 1497 1498 1499 1500 1500 1501 1501 1502 1502 1502 1503 1503 1503 1503 1504 1504 1504 1504 1504 1505 1505 1505 1505 1505 1505 1505 1505 1505 1506 1506 1507 1507 1508 1509 1509 1510 1510 1511 1511 1512 1512
1494 1495 1496 1497 1498 1498 1499 1499 1500 1500 1500 1500 1501 1501 1501 1501 1501 1501 1501 1502 1502 1502 1502 1502 1502 1502 1502 1502 1503 1503 1503 1503 1504 1504 1505 1505 1506 1507 1508 1508 1508 1509 1510
1493 1494 1495 1496 1497 1497 1497 1498 1498 1499 1499 1499 1499 1499 1498 1498 1498 1498 1498 1498 1499 1499 1499 1500 1500 1500 1500 1500 1500 1500 1500 1501 1501 1501 1502 1502 1503 1504 1504 1505 1505 1506 1507
1493 1494 1494 1495 1496 1496 1496 1496 1497 1497 1497 1497 1497 1497 1496 1496 1496 1496 1495 1495 1496 1496 1496 1497 1497 1497 1497 1497 1497 1497 1497 1498 1498 1498 1499 1499 1500 1500 1501 1501 1501 1502 1503
1492 1492 1493 1494 1494 1494 1494 1494 1495 1495 1495 1495 1495 1495 1494 1494 1493 1493 1493 1493 1493 1493 1494 1494 1494 1494 1494 1495 1495 1495 1494 1495 1495 1495 1495 1495 1496 1496 1497 1497 1497 1498 1498
1490 1491 1491 1492 1492 1492 1492 1492 1493 1493 1493 1493 1493 1493 1493 1492 1491 1491 1491 1491 1491 1491 1491 1491 1492 1492 1492 1492 1492 1492 1492 1492 1492 1492 1492 1492 1492 1492 1493 1493 1493 1493 1494
1488 1489 1489 1489 1490 1490 1490 1490 1491 1491 1491 1491 1491 1491 1490 1490 1490 1489 1489 1489 1489 1488 1489 1489 1489 1489 1489 1489 1489 1489 1489 1488 1488 1488 1489 1489 1489 1489 1489 1489 1489 1489 1490
1486 1487 1487 1487 1488 1488 1488 1488 1488 1489 1489 1488 1488 1488 1488 1487 1487 1487 1486 1486 1486 1486 1486 1486 1486 1486 1486 1486 1486 1486 1486 1486 1486 1485 1486 1486 1486 1486 1486 1486 1485 1485 1486
1484 1484 1485 1485 1485 1486 1486 1486 1486 1486 1486 1486 1485 1485 1485 1484 1484 1484 1483 1484 1483 1483 1483 1483 1483 1483 1483 1483 1483 1483 1483 1483 1483 1482 1483 1483 1483 1482 1482 1482 1482 1482 1482
1482 1482 1483 1483 1483 1484 1484 1484 1484 1484 1484 1483 1483 1482 1482 1482 1481 1481 1481 1481 1480 1480 1480 1480 1480 1480 1480 1480 1480 1480 1480 1480 1479 1479 1479 1479 1479 1479 1479 1478 1478 1478 1478
1480 1480 1481 1481 1481 1481 1482 1482 1482 1481 1481 1481 1480 1480 1479 1479 1478 1478 1478 1478 1477 1478 1477 1477 1477 1477 1477 1477 1477 1477 1477 1476 1476 1476 1476 1476 1475 1475 1475 1475 1475 1475 1474
1478 1479 1479 1479 1479 1479 1479 1479 1479 1479 1478 1478 1477 1477 1476 1476 1476 1475 1475 1475 1475 1475 1474 1474 1474 1474 1474 1474 1474 1474 1474 1474 1473 1473 1472 1472 1472 1472 1472 1472 1471 1471 1471